Theta_e
335 341 345 345 345 348 348 348 349 347 346 345 344 342 341 340 339 340 339 340 339 335 335 335 333 335 333 334 334 334 333 333 333 333 334 334 334 334 333 333 334 331 334
339 342 343 344 346 349 349 349 348 347 347 345 344 342 342 340 338 337 338 340 338 334 334 334 334 333 333 334 333 333 334 333 330 328 329 335 335 332 332 332 332 331 332
339 342 342 343 344 347 348 348 348 347 346 345 344 343 341 340 338 336 336 339 336 335 334 334 334 333 332 332 332 331 329 328 327 327 330 325 326 333 333 332 332 332 333
339 342 341 341 343 346 347 348 348 347 346 345 344 342 340 339 337 336 336 338 334 333 333 333 332 330 330 330 330 329 328 327 326 328 322 322 323 331 333 334 333 333 334
338 341 340 340 344 346 348 348 346 346 346 345 343 341 340 338 336 336 335 335 334 332 332 332 330 329 329 329 330 330 330 330 330 328 319 319 321 330 332 333 335 336 336
338 340 338 341 344 346 347 347 346 345 344 343 342 340 338 337 336 336 335 336 333 332 332 330 328 329 329 329 330 331 330 330 332 323 320 323 325 331 334 334 335 338 338
337 338 338 341 345 346 346 345 344 343 344 343 341 340 339 338 337 335 335 334 332 331 330 328 328 328 329 329 330 330 330 330 326 323 324 324 325 331 336 335 335 336 338
336 337 338 337 340 342 343 343 343 343 342 341 340 339 339 337 336 336 334 334 333 330 328 328 328 328 328 329 330 330 329 328 325 324 325 325 331 333 336 337 335 336 336
338 338 336 340 339 336 338 339 340 341 340 339 339 338 337 334 334 335 334 333 331 329 328 328 328 328 329 329 330 330 328 327 323 325 327 326 333 333 336 336 337 336 335
337 338 335 337 339 339 337 333 335 336 336 336 335 332 330 331 331 332 330 332 330 329 329 328 329 329 330 330 330 328 326 326 323 325 326 325 331 332 335 336 336 335 334
335 335 334 333 336 338 337 332 330 331 331 331 330 327 325 326 327 326 327 330 333 332 330 330 330 331 331 329 328 327 325 323 326 324 325 328 330 332 335 336 336 333 333
331 333 333 332 333 336 338 333 332 331 331 329 328 326 326 327 326 328 324 327 328 327 329 330 330 330 326 323 323 325 322 325 325 325 325 329 329 332 334 336 336 332 332
330 333 334 331 332 331 330 334 334 330 329 327 327 326 325 325 325 324 323 322 322 318 321 324 323 323 323 323 324 324 325 325 325 324 325 328 329 331 333 335 336 333 333
328 330 332 332 331 330 333 333 332 330 328 325 325 326 323 323 323 321 322 323 322 320 320 322 323 323 323 326 325 325 325 325 326 324 323 325 329 329 331 334 335 333 334
324 328 329 331 329 330 332 332 332 330 328 324 324 325 323 322 320 321 320 320 322 323 323 323 323 323 324 325 326 326 325 326 326 326 324 321 326 329 330 331 334 334 333
328 327 329 329 330 329 328 330 331 328 327 323 323 324 324 322 321 321 320 320 320 322 323 323 322 322 322 324 325 326 326 327 327 327 325 323 324 327 327 329 332 332 333
328 327 326 326 328 328 328 329 330 328 326 323 323 324 324 324 322 320 320 320 321 323 323 323 323 323 323 324 324 325 325 326 326 326 327 325 323 322 325 329 333 332 331
327 327 325 326 327 328 327 330 328 328 324 325 324 323 325 325 323 321 320 321 323 324 324 324 324 324 324 323 322 323 325 325 325 325 326 325 324 324 325 330 332 330 328
326 326 326 326 326 328 329 329 328 327 327 327 324 323 325 325 325 323 322 322 325 326 325 326 326 325 323 323 323 323 322 324 326 329 328 325 324 321 320 319 319 322 325
327 327 326 326 326 328 329 327 327 327 326 329 325 325 326 325 325 324 323 323 327 327 326 326 325 325 323 323 325 326 326 327 328 325 323 325 323 319 318 316 314 315 319
326 325 325 324 325 326 327 324 325 324 325 327 328 328 328 325 326 325 324 324 326 326 326 325 324 323 323 325 322 322 324 323 321 321 322 321 315 310 308 310 310 309 310
311 317 324 325 325 326 327 326 325 326 325 327 328 329 329 326 326 326 326 326 326 325 324 323 322 322 322 324 319 320 315 316 319 318 318 315 310 306 304 303 304 304 303
305 307 310 315 326 327 327 327 326 325 325 325 325 326 326 327 327 328 327 326 325 325 323 323 324 322 320 322 323 319 313 311 312 314 313 311 306 302 300 299 300 300 299
304 305 306 308 311 314 320 325 324 323 321 323 325 326 326 326 326 327 327 326 325 326 323 323 326 325 323 320 323 324 322 318 311 305 309 307 304 300 299 298 296 297 298
306 305 306 306 307 309 311 314 319 321 322 323 323 323 323 322 321 321 323 323 323 324 324 323 321 318 318 320 318 318 319 317 316 311 304 303 302 299 299 297 295 294 293
304 305 306 305 305 306 308 309 310 310 310 315 317 316 316 317 317 317 318 318 318 319 319 320 319 316 315 316 315 316 315 314 313 312 310 305 301 297 296 295 293 292 292
Wind_Speed
13 17 19 18 18 16 16 15 15 15 16 17 16 15 14 14 14 13 13 13 13 13 14 12 12 12 12 11 11 10 10 10 9 7 7 9 10 10 10 11 12 7 9
18 17 18 18 17 16 16 15 15 15 16 17 16 15 14 15 15 13 12 11 12 12 12 11 11 10 10 10 10 10 9 8 5 3 1 2 9 8 8 8 8 6 8
18 17 14 17 17 15 14 16 15 15 15 18 17 15 14 15 14 13 12 12 12 12 11 10 10 9 8 8 9 8 7 6 4 5 6 4 6 7 7 6 6 6 6
18 16 14 14 16 15 14 15 15 14 15 17 17 15 13 13 14 13 13 11 12 10 10 9 9 8 7 7 7 7 6 5 5 8 5 4 5 7 6 6 4 6 6
17 16 14 13 15 15 13 15 14 13 15 16 15 14 12 13 14 14 13 12 11 10 9 8 7 7 6 6 6 6 5 5 6 8 2 4 4 5 4 5 7 8 7
16 15 17 14 16 15 15 14 14 14 14 14 13 13 11 12 13 12 12 11 11 9 8 7 7 6 5 5 4 5 5 7 9 7 4 3 5 5 5 5 7 8 7
14 13 16 14 15 15 15 14 15 14 13 12 11 11 10 10 11 10 10 10 10 9 8 7 6 4 4 3 3 3 5 7 6 4 3 4 5 5 6 6 7 9 9
14 14 14 12 14 14 15 14 14 14 12 11 11 10 11 10 10 10 9 9 8 8 6 5 4 3 2 2 3 4 4 6 7 5 2 5 6 4 6 7 6 9 8
14 14 12 11 13 13 12 12 12 13 12 11 11 10 10 9 8 7 8 7 7 6 5 4 2 1 1 1 2 3 4 7 6 4 2 4 5 5 7 8 9 7 6
13 13 14 11 11 11 9 12 12 11 11 10 11 10 9 8 8 9 7 5 5 4 3 2 2 2 3 4 4 4 5 9 6 6 2 4 4 5 7 8 9 6 4
9 11 13 13 11 12 10 7 9 11 10 10 9 10 7 5 6 7 6 9 4 2 2 3 3 4 5 8 8 7 7 3 5 1 3 6 2 5 7 8 8 4 3
11 11 12 12 12 12 11 10 8 8 6 5 6 6 5 7 7 9 8 8 5 4 5 6 7 7 7 5 3 7 3 5 1 2 3 6 1 5 7 8 6 4 3
13 8 13 11 11 10 9 9 6 5 6 5 8 7 6 4 6 5 4 4 4 6 4 6 5 4 6 3 1 4 4 0 3 2 5 7 1 4 6 6 7 3 5
13 13 10 16 13 10 7 8 8 7 6 5 6 8 5 1 5 5 3 5 5 4 6 5 3 4 2 4 4 4 4 3 3 1 4 7 5 2 4 5 7 4 8
8 13 12 9 6 6 8 7 7 7 6 5 6 6 5 3 3 3 3 3 4 4 4 4 4 3 4 5 4 5 5 5 4 2 2 9 6 3 4 4 6 6 9
8 17 16 12 11 8 4 6 7 5 6 5 4 5 7 5 5 4 4 4 3 3 4 4 4 4 4 4 4 5 5 5 5 4 2 4 7 3 1 3 1 6 12
9 6 14 11 13 11 7 4 6 5 5 5 5 7 7 5 5 5 4 4 5 4 5 2 3 2 3 4 5 5 5 5 5 4 3 1 4 4 3 2 5 10 14
6 6 6 7 11 12 10 5 3 2 4 5 5 5 7 7 5 4 3 4 4 4 3 2 2 2 3 3 3 4 4 5 5 3 1 2 3 4 7 9 11 14 13
9 9 7 6 8 13 10 6 4 5 2 4 5 5 7 6 7 5 5 5 5 3 4 4 4 4 3 3 4 5 4 4 3 3 3 4 6 5 6 13 12 10 12
7 8 9 7 6 8 7 5 4 3 3 2 3 4 7 6 7 5 4 5 4 3 3 3 5 4 4 4 3 4 3 2 2 3 5 5 7 8 7 8 6 7 11
9 9 11 10 9 7 6 6 4 5 4 2 3 5 5 6 7 6 4 5 5 4 5 5 3 6 3 2 1 4 3 1 5 5 4 6 8 7 8 7 5 5 7
8 10 6 9 10 8 7 6 4 5 3 4 4 4 5 5 6 5 6 5 5 4 5 4 4 3 3 4 4 2 2 0 3 6 5 6 7 6 6 6 6 6 6
14 15 16 12 3 6 5 4 3 3 2 4 4 3 5 7 6 6 6 5 4 3 3 4 5 6 5 4 8 4 3 3 4 2 4 5 6 5 6 6 6 5 5
15 14 19 18 15 11 7 4 5 5 5 5 7 5 4 2 4 2 3 2 0 1 3 3 4 7 7 9 4 7 3 3 3 3 2 3 5 6 5 5 6 4 6
11 14 15 17 17 15 12 11 3 1 1 3 3 5 6 6 6 6 6 5 4 3 4 3 3 10 7 7 4 5 3 0 2 3 3 3 4 4 4 4 4 4 5
13 13 16 16 15 15 13 14 12 12 11 6 5 6 5 5 6 7 6 4 5 5 4 3 4 6 5 6 4 5 4 3 2 3 3 3 4 3 3 4 4 3 3
Wind_Direction
135 147 153 155 154 152 148 145 142 143 142 134 127 123 119 113 108 107 105 109 104 103 101 104 102 94 92 83 79 82 85 79 77 78 78 78 70 61 51 34 26 41 35
130 146 155 156 158 157 153 148 145 150 145 140 135 130 126 119 113 115 115 106 105 105 112 113 105 102 88 83 79 78 79 73 54 17 26 109 80 57 56 47 36 25 21
132 148 158 157 159 160 157 154 150 155 154 148 141 134 131 126 119 115 120 117 114 117 111 107 102 96 91 82 78 76 71 58 11 322 303 224 98 58 53 45 29 21 12
137 147 159 155 159 160 164 152 154 159 157 152 144 135 137 131 125 125 120 126 129 122 117 114 106 98 87 79 71 64 54 33 336 307 296 27 89 76 31 22 11 5 1
140 151 149 153 159 160 162 155 159 159 159 147 142 138 143 137 133 131 131 123 120 128 126 113 109 97 86 77 68 55 35 353 311 296 298 53 8 62 24 354 356 357 356
140 154 139 153 159 159 156 152 151 151 143 140 135 145 150 147 139 140 141 139 135 135 123 121 110 99 90 77 64 48 14 337 316 273 81 143 67 42 357 348 347 338 343
138 126 145 153 156 149 149 144 142 143 136 136 140 145 146 144 142 146 138 134 139 133 131 125 115 105 92 73 54 37 7 333 312 334 62 75 73 27 347 346 342 336 343
126 139 146 148 147 146 147 147 143 139 138 143 144 145 146 149 154 151 145 133 132 139 138 132 123 106 83 51 29 16 352 326 312 280 57 96 82 19 338 331 339 351 357
130 144 150 156 149 141 142 140 143 141 142 146 146 143 144 148 142 130 127 140 149 149 149 145 142 185 297 352 351 341 321 303 298 294 300 96 57 8 340 356 352 25 22
138 148 153 165 156 148 149 150 144 139 140 143 137 130 122 126 127 135 131 146 160 160 169 176 221 276 304 300 281 280 285 286 264 265 122 102 50 345 338 345 4 12 40
146 152 162 168 165 156 152 147 133 133 136 134 132 136 138 159 163 151 177 166 156 132 198 217 248 272 279 276 255 246 258 259 244 307 104 102 17 328 329 341 353 1 70
159 169 170 170 171 166 158 147 147 144 150 158 151 159 178 204 172 172 142 154 168 205 235 241 248 255 266 257 218 227 235 249 265 258 137 129 8 326 330 338 347 14 118
168 179 179 176 179 173 159 154 155 162 165 169 174 175 216 195 137 142 152 174 194 215 228 217 227 234 240 247 310 217 227 304 257 225 143 150 154 311 321 326 322 342 155
165 191 197 184 180 175 146 155 157 170 168 172 177 174 190 153 149 165 180 187 190 169 219 198 214 216 265 249 247 290 304 280 285 252 164 162 179 246 313 323 325 289 153
178 187 204 154 165 131 148 146 166 180 165 170 162 167 152 172 187 170 186 194 184 199 196 221 208 218 220 237 242 222 242 253 256 258 169 184 195 204 275 300 321 151 137
216 196 176 167 176 130 151 149 178 185 156 152 156 165 173 176 184 182 190 191 216 219 215 200 219 214 230 228 230 240 240 252 243 226 220 184 191 202 252 283 195 135 131
215 237 175 169 156 151 153 204 190 190 158 155 160 173 176 201 181 174 184 200 205 220 210 216 229 234 249 262 236 240 247 242 245 247 212 170 162 142 62 282 133 127 125
165 191 212 163 145 164 170 165 213 266 157 163 163 169 175 184 195 191 192 204 220 211 212 222 257 294 266 271 280 262 225 209 230 214 198 46 65 118 60 92 118 122 111
158 179 157 147 150 159 175 160 172 225 265 168 166 173 181 185 189 188 202 222 205 182 205 195 220 213 233 253 253 261 250 248 173 77 89 79 90 88 84 62 62 91 119
159 171 152 160 152 154 158 150 159 223 243 258 212 179 179 182 191 192 211 225 227 220 230 215 212 221 204 219 257 294 283 291 113 103 94 69 104 99 89 82 75 60 76
164 161 165 164 164 165 170 160 166 185 223 231 224 203 214 183 187 189 197 218 229 202 210 221 216 214 231 207 344 266 259 344 118 109 111 97 77 81 81 78 79 80 69
53 65 162 176 174 181 181 166 161 171 202 202 215 202 232 210 200 192 193 214 224 218 218 206 191 214 219 180 199 199 199 81 71 86 92 97 97 86 70 73 71 72 84
44 53 53 27 125 156 156 150 142 149 220 195 223 208 221 208 207 208 225 206 227 179 194 229 218 211 235 221 211 196 199 190 126 100 95 102 97 97 99 86 76 69 67
47 50 57 47 31 24 32 150 168 188 197 199 202 200 198 53 23 359 238 256 332 150 219 236 252 238 223 242 228 209 200 136 150 130 97 82 108 99 96 94 91 71 78
44 49 60 54 42 30 18 46 34 305 251 99 73 79 76 56 40 55 42 66 68 48 34 64 73 55 38 357 24 6 39 340 141 155 149 151 85 86 103 115 105 85 68
46 44 61 60 47 36 19 33 43 41 34 59 61 77 63 62 42 29 17 25 42 41 356 1 18 65 25 54 2 35 352 327 300 213 143 131 140 126 116 98 98 94 85